RADUGA-1 4 (25642 NORAD) Tracking and Keplerian Element Data

This shows tracking and keplerian element data for the satellite.

Feedback or suggestion? Click here.




ElementValue
Catalog25642
NameRADUGA-1 4
Epoch Orbit9815
Epoch Day353.93141994
Epoch Year2025
RAAN3.1243
Inclination15.5925
Eccentricity0.0007974
Argument of Perigee273.9655
Mean Anonmoly258.3311
Mean Motion1.00300685
Decay Rate-3.56E-06
L11 25642U 99010A 25353.93141994 -.00000356 00000+0 00000+0 0 9999
L22 25642 15.5925 3.1243 0007974 273.9655 258.3311 1.00300685 98154



Live tracking and technical data element details for RADUGA-1 4 (NORAD 25642). RADUGA-1 4 can be tracked NOW for your location showing map with azimuth and elevation plus other details from your city location.







IsCatalogInMostPopularTable: catalog: 25642, numindb: 360
Update: records affected: 1



GetName: 25642 RADUGA-1 4

Hit Count: updated at: Fri, 16 Jan 2026 03:54:34 GMT